Find Starlink 6334

NORAD ID: 57238 Int'l Des: 2023-094 Owner: SPXS Country: US Constellation: starlink operational
LEOCIRCULAR

当前视图

正在加载3D地球...

About Starlink 6334

Starlink 6334 (NORAD 57238) is a starlink constellation satellite (v1.5) launched Jul 7, 2023 by SPXS of US. It operates in LEO, CIRCULAR orbit with a mass of 305.00 kg.

即将过境

Passes for default location (London). Set your location on the main map for personalized predictions.

高度历史

Loading altitude history...

两行轨道根数

1 57238U 23094W 26265.54601291 -.00000091 00000-0 62311-5 0 9991
2 57238 43.0051 348.4012 0001651 271.3790 88.6873 15.27577018177349
Epoch: Sep 22, 2026 • Age: 11 hours

当前状态

高度 487.3 km
远地点 / 近地点 N/A
速度 7.63 km/s
星下点 42.91°N, 59.39°E
发射日期 Jul 7, 2023
运行时间 3.2 years
类型 internet

技术详情

分类 Payload
质量 305.00 kg
干质量 290.00 kg
长度 0.20 m
跨度 9.00 m
形状 ? Box + pan
制造商 SPXS
平台类型 Starlink
阶段状态 In Orbit
所有者/国家 SPXS/US

Most Searched